📊 Raw Sensor Data

Showing records 52026 to 52050 of 85,261 total

ID Distance (ft) Battery V Battery A Int Temp (°F) Int Humid (%) Ext Temp (°F) Solar V RSSI SNR Time Stamp
33248 14.3 3.80 -5 49 39 50 0.10 -70 8 02/23/2025 11:00 PM
33247 14.3 3.86 -5 50 39 51 0.00 -70 8 02/23/2025 10:45 PM
33246 14.3 3.81 -5 50 39 51 0.00 -70 8 02/23/2025 10:30 PM
33245 14.3 3.81 -5 50 39 52 0.00 -70 8 02/23/2025 10:15 PM
33244 14.3 3.81 -5 51 39 52 0.00 -71 8 02/23/2025 10:00 PM
33243 14.3 3.81 -5 51 39 52 0.00 -71 8 02/23/2025 09:45 PM
33242 14.3 3.86 -5 51 39 52 0.00 -70 8 02/23/2025 09:30 PM
33241 14.3 3.81 -5 51 39 53 0.00 -70 7 02/23/2025 09:15 PM
33240 14.3 3.81 -5 52 39 52 0.00 -70 8 02/23/2025 09:00 PM
33239 14.3 3.81 -5 52 39 53 0.00 -70 8 02/23/2025 08:45 PM
33238 14.3 3.86 -5 53 39 54 0.00 -69 8 02/23/2025 08:30 PM
33237 14.3 3.81 -5 54 40 54 0.00 -69 8 02/23/2025 08:00 PM
33236 14.3 3.81 -5 54 39 55 0.00 -69 8 02/23/2025 07:45 PM
33235 14.3 3.81 -5 55 40 55 0.00 -70 8 02/23/2025 07:30 PM
33234 14.3 3.87 -5 55 40 56 0.00 -69 8 02/23/2025 07:15 PM
33233 14.3 3.87 -5 56 40 56 0.00 -70 8 02/23/2025 07:00 PM
33232 14.3 3.87 -5 56 41 56 0.00 -69 8 02/23/2025 06:45 PM
33231 14.3 3.81 -35 56 41 57 0.00 -69 8 02/23/2025 06:30 PM
33230 14.3 3.81 -5 58 41 57 0.10 -70 8 02/23/2025 06:15 PM
33229 14.3 3.81 -9 59 41 59 2.30 -69 8 02/23/2025 06:00 PM
33228 14.3 3.81 -5 61 41 60 4.50 -69 8 02/23/2025 05:45 PM
33227 14.3 3.90 9 62 41 62 4.50 -70 8 02/23/2025 05:30 PM
33226 14.4 3.92 0 64 41 62 4.50 -70 8 02/23/2025 05:15 PM
33225 14.4 3.86 18 64 42 63 4.50 -70 8 02/23/2025 05:00 PM
33224 14.4 3.96 34 66 42 63 4.50 -69 7 02/23/2025 04:45 PM